Tracking 31027 objects as of 19-Jul-2025
HD Live streaming from Space Station
objects crossing your sky now

FENGYUN 1C DEB

Track FENGYUN 1C DEB now!
10-day predictions


NORAD ID: 32357
Int'l Code: 1999-025CZA
Perigee: 651.6 km
Apogee: 1,384.4 km
Inclination: 98.9 °
Period: 105.4 minutes
Semi major axis: 7389 km
RCS: 0.0112 m2 (small)
Launch date: May 10, 1999
Source: People's Republic of China (PRC)
Launch site: Taiyaun Space Center, China (TSC)

Note: This is SATELLITE DEBRIS
Your satellite tracking list
STARLINK-1749
Track 1 satellite(s)




NASA's NSSDC Master Catalog

Two Line Element Set (TLE):
1 32357U 99025CZA 25194.39013985  .00002633  00000-0  13632-2 0  9995
2 32357  98.8725 245.5698 0495910 229.6001 197.5866 13.66859715647053
Source of the keplerian elements: AFSPC